Location: Chrząstowo
(52.0654°N, 17.1290°E)
Time: 01:37:30
(UTC+01:00)

Envisat - Pass Details

Date: 17 December 2019
Orbit: 764 x 766 km, 98.1° (Epoch: 17 January)

Event Time Altitude Azimuth Distance (km) Brightness Sun altitude
Rises 17:37:20 0° 166° (SSE) 3,223 6.3 -16.7°
Reaches altitude 10° 17:39:38 10° 167° (SSE) 2,301 5.5 -17.1°
Maximum altitude 17:44:43 82° 256° (WSW) 782 3.1 -17.8°
Drops below altitude 10° 17:49:50 10° 344° (NNW) 2,317 5.5 -18.6°
Sets 17:52:09 0° 345° (NNW) 3,247 6.3 -18.9°
